Weather History for Lanai City, HI

Change the Weather History Date:

Thursday, February 21, 2013

  Actual Average Record
Temperature  
Mean Temperature 69 °F -  
Max Temperature 77 °F 77 °F 82 °F (2011)
Min Temperature 61 °F 59 °F 56 °F (1990)
Cooling Degree Days 4    
Growing Degree Days 19 (Base 50)    
Moisture  
Dew Point 62 °F    
Average Humidity 77    
Maximum Humidity 90    
Minimum Humidity 61    
Precipitation  
Precipitation 0.00 in - - ()
Sea Level Pressure  
Sea Level Pressure 30.11 in    
Wind  
Wind Speed 13 mph (NE)    
Max Wind Speed 24 mph    
Max Gust Speed 30 mph    
Averages and records for this station are not official NWS values.
T = Trace of Precipitation, MM = Missing Value Source: NWS Daily Summary

Daily Weather History Graph

Daily Weather History Graph

Search for Another Location

Airport:

Trip Planner

Search our weather history database for the weather conditions in past years. The results will help you decide how hot, cold, wet, or windy it might be!

Date:

Astronomy

Feb. 21, 2013 Rise Set
Actual Time 6:53 AM HST 6:29 PM HST
Civil Twilight 6:31 AM HST 6:51 PM HST
Nautical Twilight 6:05 AM HST 7:17 PM HST
Astronomical Twilight 5:39 AM HST 7:43 PM HST
Moon 3:12 PM HST 3:46 AM HST
Length of Visible Light 12h 20m
Length of Day
11h 35m
Waxing Gibbous, 85% of the Moon is Illuminated
Feb 21
Waxing Gibbous
Feb 25
Full
Mar 4
Last Quarter
Mar 11
New
Mar 19
First Quarter

Hourly Weather History & Observations

Time (HST) Temp. Dew Point Humidity Pressure Visibility Wind Dir Wind Speed Gust Speed Precip Events Conditions
12:56 AM 64.9 °F 59.0 °F 81% 30.12 in - ENE 6.9 mph - N/A   Clear
1:56 AM 63.9 °F 59.9 °F 87% 30.10 in - ENE 5.8 mph - N/A   Mostly Cloudy
2:56 AM 63.0 °F 59.9 °F 90% 30.09 in - NNE 10.4 mph - N/A   Clear
3:56 AM 64.9 °F 61.0 °F 87% 30.07 in - NNE 12.7 mph - N/A   Clear
4:56 AM 64.4 °F 60.8 °F 88% 30.12 in - NE 11.5 mph - N/A   Clear
5:56 AM 63.0 °F 59.9 °F 90% 30.10 in - East 8.1 mph - N/A   Clear
6:56 AM 61.0 °F 57.9 °F 90% 30.12 in - East 6.9 mph - N/A   Clear
7:56 AM 66.2 °F 60.8 °F 83% 30.17 in - ENE 5.8 mph - N/A   Clear
8:56 AM 72.9 °F 61.9 °F 68% 30.12 in - NE 6.9 mph - N/A   Clear
9:56 AM 74.8 °F 61.9 °F 64% 30.12 in - NE 17.3 mph - N/A   Clear
10:56 AM 77.0 °F 62.6 °F 61% 30.16 in - NE 20.7 mph - N/A   Clear
11:56 AM 74.8 °F 61.9 °F 64% 30.09 in - NE 23.0 mph 28.8 mph N/A   Mostly Cloudy
12:56 PM 75.9 °F 63.0 °F 64% 30.08 in - NE 19.6 mph 23.0 mph N/A   Clear
1:56 PM 75.9 °F 63.0 °F 64% 30.07 in - NE 18.4 mph - N/A   Mostly Cloudy
2:05 PM 73.4 °F 62.6 °F 69% 30.11 in - NE 23.0 mph - N/A   Mostly Cloudy
2:13 PM 73.4 °F 62.6 °F 69% 30.11 in - NE 23.0 mph 29.9 mph N/A   Mostly Cloudy
2:56 PM 72.9 °F 63.9 °F 73% 30.06 in - NE 17.3 mph - 0.00 in Rain Light Rain
3:35 PM 73.4 °F 64.4 °F 73% 30.10 in - NE 21.9 mph - 0.00 in   Clear
3:56 PM 73.9 °F 63.0 °F 68% 30.04 in - NE 23.0 mph - 0.00 in   Clear
4:56 PM 71.6 °F 62.6 °F 73% 30.10 in - NE 24.2 mph - N/A   Clear
5:56 PM 68.9 °F 61.9 °F 78% 30.09 in - ENE 12.7 mph - N/A   Clear
6:13 PM 69.8 °F 62.6 °F 78% 30.13 in - ENE 13.8 mph 23.0 mph N/A   Mostly Cloudy
6:26 PM 68.0 °F 62.6 °F 83% 30.12 in - NE 18.4 mph 29.9 mph N/A   Clear
6:56 PM 66.9 °F 63.0 °F 87% 30.11 in - NE 15.0 mph 18.4 mph N/A   Clear
7:56 PM 66.2 °F 60.8 °F 83% 30.14 in - NNE 17.3 mph - N/A   Clear
8:56 PM 66.9 °F 61.0 °F 81% 30.12 in - ENE 15.0 mph - N/A   Clear
9:56 PM 66.9 °F 61.9 °F 84% 30.11 in - ESE 9.2 mph - N/A   Clear
10:34 PM 68.0 °F 59.0 °F 73% 30.15 in - NE 23.0 mph 26.5 mph N/A   Clear
10:56 PM 66.2 °F 59.0 °F 78% 30.17 in - East 11.5 mph - N/A   Clear
11:56 PM 66.9 °F 61.0 °F 81% 30.11 in - ENE 18.4 mph - N/A   Clear